"Pseudo-MPEC" for P1162MR

Created 2020 Sep 17 0:07:33 UT using Find_Orb

Click here for an explanation of pseudo-MPECs

 
 Astrometry: 
     P1162MR  C2020 09 14HQ_H^$DV+Astrometry1/p:j%c:redacted;;RQ'E+tclickCpBNF51
     P1162MR  C2020 09 14ik%Nmc,7t8#)b=tAZP[u(2WMq1G;'DCqiIy\f`N`xQj:H[(np#v]F51
     P1162MR  C2020 09 144#TE%I'ImxlQN\7VCia3here]/+r7yiouL]R)WP0ZwbLmmUO_1r(F51
     P1162MR  C2020 09 15M_@\j8ti[C-qhc(rMco55b]DkB0d$]ID?:]m]6=sHZ!@.iw.+ZRvF51
     P1162MR  C2020 09 15Vb:5ydY?Xpfor2;i#=otjqTF7bdZ:L?t%o+A0@ANy:,JL!9)sbWcF51
     P1162MR  C2020 09 15Y2cJNNexplanation*hT#=YrHU\Bv0A6pEL^EFW.%CrOr3:TjWh=F51
     P1162MR KC2020 09 16Ywy!sdwc4BY`'Y+'kna4@j,tX!(HXJelG?mt]D]qgq2HPq)A?jV_711
     P1162MR KC2020 09 16[39=;P@'Bhib]h.UqtW!F`CeQS%fI8%g.@qO!mqU\Y8JY!Y*Oj,u711
     P1162MR KC2020 09 16+)a6\f_X[A!wpWjg2'%Q4Ze//$+:-FPCf,)xg/?CaiQ0fX1kdy%)711
     P1162MR  C2020 09 16q58vtS)@]'`j0^Ws$TZmTf$uDifbhFk_[*5U7?ONidMP]+*rS98WF51
     P1162MR  C2020 09 164\TyBj[[tqjejs:jb2T6bkum=N`U+tl_Nk'O[cd04UO$(ink[GVeF51
     P1162MR  C2020 09 16?+KtjE@PNe1#!Ng1bv:f%^4J:6+X8aDWFI+7ILAw7RT8[u#CL0QxF51
     P1162MR  C2020 09 16!i`N'!L^HPi9yoZP-f*yGYWk+uU6QSkGBQO#Sa!R+n+N[an?;RraF51

Station data:
(711) McDonald Observatory, Fort Davis  (N30.671481 W104.021500)  US/Texas.
   0.76-m f/3.0 reflector.
(F51) Pan-STARRS 1, Haleakala  (N20.707235 W156.255910)  US/Hawaii.
   Observers N. Primak, A. Schultz, S. Watters, J. Thiel, T. Goggia. Measurer
   PS1 Science Consortium. 1.8-m Ritchey-Chrétien + CCD.

Orbital elements:  P1162MR
   Perihelion 2020 Sep 8.932577 +/- 0.782 TT = 22:22:54 (JD 2459101.432577)
Epoch 2020 Sep 16.0 TT = JDT 2459108.5   Earth MOID: 0.2670   Ma: 0.0725
M   1.98288906 +/- 0.17             (J2000 ecliptic)          AutoNEOCP
n   0.28056747 +/- 0.0121           Peri.  211.19392 +/- 0.9
a   2.31088234 +/- 0.0667           Node   141.40257 +/- 0.33
e   0.4525263 +/- 0.0134            Incl.    7.23393 +/- 0.15
P   3.51                   H 23.5   G  0.15   U  9.8  
q 1.26514710 +/- 0.00556    Q 3.35661758 +/- 0.125
From 13 observations 2020 Sept. 14-16 (47.6 hr); mean residual 0".26
Residuals in arcseconds: 
200914 F51  .22-  .11+    200915 F51  .20+  .02-    200916 F51  .12-  .09+    
200914 F51  .04+  .02-    200916 711  .54-  .28-    200916 F51  .24+  .05+    
200914 F51  .20+  .03-    200916 711  .49-  .30+    200916 F51  .53+  .16-    
200915 F51  .21-  .02-    200916 711  .66+  .13+    
200915 F51  .03+  .15-    200916 F51  .15-  .10-    

Ephemerides (geocentric):
Date (UTC) HH   RA              Dec         delta   r     elong  mag " sig PA
---- -- -- --  -------------   -----------  ------ ------ -----  --- ---- ---
2020 09 17 00  01 32 29.368   -11 27 11.34  .29262 1.2679 150.4 22.4 .412 149
2020 09 17 01  01 32 33.293   -11 27 45.89  .29264 1.2679 150.4 22.4 .417 147
2020 09 17 02  01 32 37.213   -11 28 20.40  .29266 1.2679 150.4 22.4 .422 146
2020 09 17 03  01 32 41.127   -11 28 54.88  .29267 1.2679 150.4 22.4 .427 144
2020 09 17 04  01 32 45.034   -11 29 29.33  .29269 1.2680 150.5 22.4 .432 143
2020 09 17 05  01 32 48.936   -11 30 03.74  .29271 1.2680 150.5 22.4 .438 142
2020 09 17 06  01 32 52.831   -11 30 38.13  .29273 1.2680 150.5 22.4 .445 140
2020 09 17 07  01 32 56.720   -11 31 12.48  .29275 1.2681 150.5 22.4 .452 139
2020 09 17 08  01 33 00.603   -11 31 46.79  .29276 1.2681 150.5 22.4 .459 137
2020 09 17 09  01 33 04.481   -11 32 21.08  .29278 1.2681 150.5 22.4 .467 136
2020 09 17 10  01 33 08.352   -11 32 55.33  .29280 1.2682 150.5 22.4 .475 135
2020 09 17 11  01 33 12.216   -11 33 29.55  .29282 1.2682 150.5 22.4 .484 133
2020 09 17 12  01 33 16.075   -11 34 03.74  .29284 1.2682 150.6 22.4 .493 132
2020 09 17 13  01 33 19.928   -11 34 37.89  .29286 1.2682 150.6 22.4 .503 131
2020 09 17 14  01 33 23.775   -11 35 12.01  .29288 1.2683 150.6 22.4 .513 129
2020 09 17 15  01 33 27.615   -11 35 46.10  .29290 1.2683 150.6 22.4 .523 128
2020 09 17 16  01 33 31.450   -11 36 20.15  .29292 1.2683 150.6 22.4 .534 127
2020 09 17 17  01 33 35.278   -11 36 54.17  .29294 1.2684 150.6 22.4 .546 126
2020 09 17 18  01 33 39.101   -11 37 28.16  .29296 1.2684 150.6 22.4 .558 125
2020 09 17 19  01 33 42.917   -11 38 02.11  .29298 1.2684 150.6 22.4 .570 123
2020 09 17 20  01 33 46.727   -11 38 36.03  .29300 1.2685 150.6 22.4 .583 122
2020 09 17 21  01 33 50.531   -11 39 09.91  .29302 1.2685 150.7 22.4 .596 121
2020 09 17 22  01 33 54.330   -11 39 43.76  .29304 1.2685 150.7 22.4 .610 120
2020 09 17 23  01 33 58.122   -11 40 17.57  .29306 1.2685 150.7 22.4 .624 119
2020 09 18 00  01 34 01.907   -11 40 51.35  .29308 1.2686 150.7 22.4 .638 118
2020 09 18 01  01 34 05.687   -11 41 25.09  .29311 1.2686 150.7 22.4 .653 117
2020 09 18 02  01 34 09.461   -11 41 58.80  .29313 1.2686 150.7 22.4 .669 116
2020 09 18 03  01 34 13.229   -11 42 32.48  .29315 1.2687 150.7 22.4 .685 116
2020 09 18 04  01 34 16.990   -11 43 06.12  .29317 1.2687 150.7 22.4 .701 115
2020 09 18 05  01 34 20.746   -11 43 39.72  .29319 1.2687 150.7 22.4 .718 114
2020 09 18 06  01 34 24.495   -11 44 13.29  .29322 1.2688 150.8 22.4 .735 113
2020 09 18 07  01 34 28.239   -11 44 46.83  .29324 1.2688 150.8 22.4 .753 112
2020 09 18 08  01 34 31.976   -11 45 20.32  .29326 1.2688 150.8 22.4 .771 112
2020 09 18 09  01 34 35.708   -11 45 53.78  .29328 1.2689 150.8 22.4 .789 111
2020 09 18 10  01 34 39.433   -11 46 27.21  .29331 1.2689 150.8 22.4 .808 110
2020 09 18 11  01 34 43.152   -11 47 00.60  .29333 1.2689 150.8 22.4 .827 110
2020 09 18 12  01 34 46.865   -11 47 33.96  .29335 1.2690 150.8 22.4 .847 109
2020 09 18 13  01 34 50.572   -11 48 07.27  .29338 1.2690 150.8 22.4 .867 108
2020 09 18 14  01 34 54.273   -11 48 40.55  .29340 1.2690 150.9 22.4 .887 108
2020 09 18 15  01 34 57.968   -11 49 13.80  .29343 1.2691 150.9 22.4 .908 107
2020 09 18 16  01 35 01.657   -11 49 47.01  .29345 1.2691 150.9 22.4 .929 107
2020 09 18 17  01 35 05.340   -11 50 20.18  .29347 1.2691 150.9 22.4 .951 106
2020 09 18 18  01 35 09.016   -11 50 53.31  .29350 1.2692 150.9 22.4 .973 105
2020 09 18 19  01 35 12.687   -11 51 26.41  .29352 1.2692 150.9 22.4 1.00 105
2020 09 18 20  01 35 16.352   -11 51 59.47  .29355 1.2692 150.9 22.4 1.02 104
2020 09 18 21  01 35 20.010   -11 52 32.50  .29357 1.2693 150.9 22.4 1.04 104
2020 09 18 22  01 35 23.663   -11 53 05.48  .29360 1.2693 150.9 22.4 1.06 104
2020 09 18 23  01 35 27.309   -11 53 38.43  .29362 1.2693 151.0 22.4 1.09 103